• Join FlightAware (Why Join?)
  • Login
  • US Flag GB Flag 
13:38 EDT


 

Airport Tracker/Info


-or-


 

Live Flight TrackerFlight Track Log ✈ AAL1459 ✈ 18-May-2013 ✈ KORD - KRNO

Flight Track Log - Related Links

Times and Time Zones

All times are in EDT time to prevent confusion due to time zone crossing. See the AAL1459 flight status page for this flight to view local times or setup timezone preferences in your user account.

Time Position Orientation Groundspeed Altitude Reporting Facility
EDT Latitude Longitude Course Direction KTS MPH feet Rate Location/Type
18:28 41.9400 -87.9160 189° South 174 200 1,700  Level FlightAware
18:28 41.9220 -87.9400 225° Southwest 200 230 2,500 1,920 Climbing FlightAware
18:29 41.9030 -87.9630 222° Southwest 209 241 3,500 1,800 Climbing FlightAware
18:29 41.8850 -87.9970 235° Southwest 250 288 4,200 1,620 Climbing FlightAware
18:30 41.8830 -88.0090 257° West 258 297 4,600 2,580 Climbing FlightAware
18:30 41.8900 -88.0460 284° West 273 314 5,500 3,180 Climbing FlightAware
18:30 41.8990 -88.0840 288° West 265 305 7,000 3,300 Climbing FlightAware
18:31 41.9060 -88.1090 291° West 273 314 7,700 2,400 Climbing FlightAware
18:31 41.9160 -88.1500 288° West 287 330 8,600 2,280 Climbing FlightAware
18:32 41.9340 -88.2280 287° West 308 354 10,400 2,160 Climbing FlightAware
18:32 41.9510 -88.3000 288° West 330 380 11,700 2,220 Climbing FlightAware
18:33 41.9740 -88.3970 288° West 347 399 13,600 2,400 Climbing FlightAware
18:34 41.9910 -88.4730 287° West 354 407 15,100 2,400 Climbing FlightAware
18:35 42.0150 -88.5750 288° West 361 415 17,000 2,400 Climbing FlightAware
18:35 42.0320 -88.6610 285° West 369 425 18,500 1,920 Climbing FlightAware
18:36 42.0350 -88.7560 272° West 387 445 19,600 1,620 Climbing FlightAware
18:37 42.0440 -88.8550 277° West 399 459 20,700 1,740 Climbing FlightAware
18:37 42.0550 -88.9620 278° West 404 465 22,100 1,920 Climbing FlightAware
18:38 42.0670 -89.0650 279° West 408 470 23,500 1,740 Climbing FlightAware
18:39 42.0800 -89.1780 279° West 416 479 24,600 1,440 Climbing FlightAware
18:39 42.0920 -89.2820 279° West 423 487 25,600 1,320 Climbing FlightAware
18:40 42.1040 -89.3870 279° West 432 497 26,400 1,260 Climbing FlightAware
18:41 42.1200 -89.5100 280° West 437 503 27,400 1,260 Climbing FlightAware
18:41 42.1330 -89.6130 280° West 442 509 28,200 1,200 Climbing FlightAware
18:42 42.1500 -89.7390 280° West 447 514 29,100 1,260 Climbing FlightAware
18:43 42.1650 -89.8500 280° West 445 512 30,000 1,380 Climbing FlightAware
18:44 42.1800 -89.9520 281° West 441 507 31,000 1,380 Climbing FlightAware
18:44 42.1980 -90.0740 281° West 438 504 32,000 1,200 Climbing FlightAware
18:45 42.2140 -90.1830 281° West 439 505 32,700 780 Climbing FlightAware
18:46 42.2290 -90.2830 281° West 445 512 33,100 660 Climbing FlightAware
18:46 42.2490 -90.4130 282° West 451 519 33,700 840 Climbing FlightAware
18:47 42.2660 -90.5220 282° West 450 518 34,300 960 Climbing FlightAware
18:48 42.2850 -90.6370 283° West 445 512 35,100 960 Climbing FlightAware
18:48 42.3040 -90.7540 282° West 444 511 35,700 600 Climbing FlightAware
18:49 42.3140 -90.8730 277° West 440 506 36,000 180 Climbing FlightAware
18:50 42.3170 -90.9840 272° West 438 504 36,000  Level FlightAware
18:51 42.3210 -91.0870 273° West 435 501 36,000  Level FlightAware
18:51 42.3270 -91.2140 274° West 433 498 36,000  Level FlightAware
18:52 42.3310 -91.3230 273° West 432 497 36,000  Level FlightAware
18:53 42.3350 -91.4440 273° West 432 497 36,000  Level FlightAware
18:53 42.3380 -91.5500 272° West 430 495 36,000  Level FlightAware
18:54 42.3420 -91.6550 273° West 429 494 36,000  Level FlightAware
18:55 42.3450 -91.7730 272° West 428 493 36,000  Level FlightAware
18:55 42.3480 -91.8680 272° West 428 493 36,000  Level FlightAware
18:56 42.3520 -92.0060 272° West 428 493 36,000  Level FlightAware
18:57 42.3560 -92.1160 273° West 429 494 36,000  Level FlightAware
18:58 42.3580 -92.2220 271° West 429 494 36,000  Level FlightAware
18:58 42.3620 -92.3400 273° West 430 495 36,000  Level FlightAware
18:59 42.3650 -92.4470 272° West 431 496 36,000  Level FlightAware
19:00 42.3680 -92.5690 272° West 431 496 36,000  Level FlightAware
19:00 42.3700 -92.6800 271° West 431 496 36,000  Level FlightAware
19:01 42.3730 -92.7830 272° West 430 495 36,000  Level FlightAware
19:02 42.3750 -92.9040 271° West 429 494 36,000  Level FlightAware
19:02 42.3780 -93.0110 272° West 427 491 36,000  Level FlightAware
19:03 42.3800 -93.1310 271° West 425 489 36,000  Level FlightAware
19:04 42.3820 -93.2340 272° West 424 488 36,000  Level FlightAware
19:05 42.3840 -93.3580 271° West 423 487 36,000  Level FlightAware
19:05 42.3860 -93.4610 272° West 423 487 36,000  Level FlightAware
19:06 42.3880 -93.5680 271° West 423 487 36,000  Level FlightAware
19:07 42.3900 -93.6850 271° West 426 490 36,000  Level FlightAware
19:07 42.3910 -93.7890 271° West 428 493 36,000  Level FlightAware
19:08 42.3930 -93.8980 271° West 430 495 36,000  Level FlightAware
19:09 42.3940 -94.0210 271° West 428 493 36,000  Level FlightAware
19:09 42.3950 -94.1260 271° West 427 491 36,000  Level FlightAware
19:10 42.3970 -94.2430 271° West 427 491 36,000  Level FlightAware
19:11 42.3980 -94.3520 271° West 427 491 36,000  Level FlightAware
19:12 42.3990 -94.4590 271° West 427 491 36,000  Level FlightAware
19:12 42.3990 -94.5800 270° West 427 491 36,000  Level FlightAware
19:13 42.4000 -94.6770 271° West 427 491 36,000  Level FlightAware
19:14 42.4000 -94.7680 270° West 427 491 36,000  Level FlightAware
19:14 42.4000 -94.8590 270° West 427 491 36,000  Level FlightAware
19:15 42.4000 -94.9500 270° West 427 491 36,000  Level FlightAware
19:16 42.4020 -95.1360 271° West 424 488 36,000  Level FlightAware
19:16 42.4020 -95.2420 270° West 424 488 36,000  Level FlightAware
19:17 42.4020 -95.3610 270° West 423 487 36,000  Level FlightAware
19:18 42.4020 -95.4580 270° West 423 487 36,000  Level FlightAware
19:18 42.4020 -95.5610 270° West 422 486 36,000  Level FlightAware
19:19 42.4020 -95.6880 270° West 422 486 36,000  Level FlightAware
19:20 42.4020 -95.7970 270° West 421 484 36,000  Level FlightAware
19:21 42.4010 -95.9120 269° West 419 482 36,000  Level FlightAware
19:21 42.4010 -96.0160 270° West 419 482 36,000  Level FlightAware
19:22 42.4000 -96.1570 269° West 420 483 36,000  Level FlightAware
19:23 42.3990 -96.2780 269° West 421 484 36,000  Level FlightAware
19:24 42.3980 -96.3840 269° West 422 486 36,000  Level FlightAware
19:24 42.3970 -96.4890 269° West 422 486 36,000  Level FlightAware
19:25 42.3960 -96.5950 269° West 422 486 36,000  Level FlightAware
19:26 42.3950 -96.7010 269° West 422 486 36,000  Level FlightAware
19:26 42.3940 -96.7910 269° West 422 486 36,000  Level FlightAware
19:27 42.3930 -96.8800 269° West 422 486 36,000  Level FlightAware
19:28 42.3910 -96.9700 268° West 422 486 36,000  Level FlightAware
19:29 42.3900 -97.0830 269° West 422 486 36,000  Level FlightAware
19:29 42.3890 -97.1720 269° West 422 486 36,000  Level FlightAware
19:30 42.3880 -97.2620 269° West 422 486 36,000  Level FlightAware
19:31 42.3860 -97.3520 268° West 422 486 36,000  Level FlightAware
19:31 42.3850 -97.4420 269° West 422 486 36,000  Level FlightAware
19:32 42.3840 -97.5540 269° West 422 486 36,000  Level FlightAware
19:33 42.3830 -97.6440 269° West 422 486 36,000  Level FlightAware
19:33 42.3820 -97.7340 269° West 422 486 36,000  Level FlightAware
19:34 42.3800 -97.8240 268° West 422 486 36,000  Level FlightAware
19:35 42.3790 -97.9140 269° West 422 486 36,000  Level FlightAware
19:35 42.3703 -98.1269 269° West 414 476 36,000  Level Denver Center
19:36 42.3678 -98.2183 268° West 411 473 36,000  Level Minneapolis Center
19:37 42.3642 -98.3711 268° West 407 468 36,000  Level Minneapolis Center
19:38 42.3608 -98.5261 268° West 412 474 36,000  Level Minneapolis Center
19:39 42.3558 -98.7114 268° West 412 474 36,000  Level Minneapolis Center
19:40 42.3506 -98.8656 267° West 411 473 36,000  Level Minneapolis Center
19:41 42.3450 -99.0225 267° West 416 479 36,000  Level Minneapolis Center
19:42 42.3406 -99.1764 268° West 413 475 36,000  Level Minneapolis Center
19:43 42.3061 -99.3197 252° West 409 471 36,000  Level Minneapolis Center
19:43 42.2739 -99.3967 241° Southwest 400 460 36,000  Level Denver Center
19:44 42.2069 -99.5531 240° Southwest 402 463 36,000  Level Denver Center
19:46 42.1428 -99.7031 240° Southwest 402 463 36,000  Level Denver Center
19:47 42.0894 -99.8292 240° Southwest 404 465 36,000  Level Denver Center
19:48 42.0361 -99.9542 240° Southwest 404 465 36,000  Level Denver Center
19:49 41.9778 -100.0944 241° Southwest 387 445 36,000  Level Denver Center
19:50 41.9272 -100.2181 241° Southwest 393 452 36,000  Level Denver Center
19:51 41.8689 -100.3592 241° Southwest 389 448 36,000  Level Denver Center
19:52 41.8189 -100.4836 242° Southwest 394 453 36,000  Level Denver Center
19:53 41.7631 -100.6297 243° Southwest 396 456 36,000  Level Denver Center
19:58 41.4380 -101.3400 243° Southwest 372 428 36,000  Level FlightAware
19:59 41.4131 -101.3740 226° Southwest 373 429 36,000  Level FlightAware ADS-B
19:59 41.3764 -101.4240 226° Southwest 375 432 36,000  Level FlightAware ADS-B
20:00 41.3433 -101.4690 226° Southwest 371 427 36,000  Level FlightAware ADS-B
20:00 41.3073 -101.5180 226° Southwest 366 421 36,000  Level FlightAware ADS-B
20:01 41.2733 -101.5640 225° Southwest 371 427 36,000  Level FlightAware ADS-B
20:01 41.2334 -101.6080 220° Southwest 380 437 36,000  Level FlightAware ADS-B
20:02 41.1953 -101.6490 219° Southwest 380 437 36,000  Level FlightAware ADS-B
20:02 41.1614 -101.6860 219° Southwest 384 442 36,000 180 Level FlightAware ADS-B
20:03 41.1195 -101.7300 218° Southwest 385 443 36,200 240 Climbing FlightAware ADS-B
20:03 41.0604 -101.7910 218° Southwest 389 448 36,300 120 Climbing FlightAware ADS-B
20:04 41.0201 -101.8300 216° Southwest 393 452 36,400  Climbing FlightAware ADS-B
20:04 40.9831 -101.8660 216° Southwest 403 464 36,300  Descending FlightAware ADS-B
20:05 40.9348 -101.9120 216° Southwest 406 467 36,400 180 Climbing FlightAware ADS-B
20:05 40.9059 -101.9420 218° Southwest 411 473 36,500 420 Climbing FlightAware ADS-B
20:05 40.8932 -101.9570 222° Southwest 412 474 36,600 660 Climbing FlightAware ADS-B
20:05 40.8835 -101.9710 227° Southwest 413 475 36,700 240 Climbing FlightAware ADS-B
20:06 40.8634 -102.0050 232° Southwest 416 479 36,700 300 Level FlightAware ADS-B
20:06 40.8442 -102.0400 234° Southwest 417 480 36,900 600 Climbing FlightAware ADS-B
20:06 40.8207 -102.0890 238° Southwest 423 487 37,100 360 Climbing FlightAware ADS-B
20:06 40.8140 -102.1050 241° Southwest 426 490 37,100 -180 Level FlightAware ADS-B
20:07 40.7875 -102.1760 244° Southwest 438 504 37,000 60 Descending FlightAware ADS-B
20:07 40.7601 -102.2480 243° Southwest 437 503 37,200 180 Climbing FlightAware ADS-B
20:08 40.7340 -102.3190 244° Southwest 444 511 37,200  Level FlightAware
20:08 40.7332 -102.3220 251° West 445 512 37,200 360 Level FlightAware ADS-B
20:08 40.7028 -102.3930 241° Southwest 449 517 37,400 300 Climbing FlightAware ADS-B
20:09 40.6709 -102.4640 239° Southwest 453 521 37,500 240 Climbing FlightAware ADS-B
20:09 40.6389 -102.5380 240° Southwest 455 524 37,700 480 Climbing FlightAware ADS-B
20:10 40.6085 -102.6110 241° Southwest 455 524 38,000 240 Climbing FlightAware ADS-B
20:10 40.5782 -102.6840 241° Southwest 454 522 38,000  Level FlightAware ADS-B
20:11 40.5471 -102.7570 241° Southwest 454 522 38,000  Level FlightAware ADS-B
20:11 40.5164 -102.8290 241° Southwest 454 522 38,000  Level FlightAware ADS-B
20:12 40.4866 -102.9020 242° Southwest 457 526 38,000  Level FlightAware ADS-B
20:12 40.4562 -102.9760 242° Southwest 458 527 38,000  Level FlightAware ADS-B
20:13 40.4258 -103.0500 242° Southwest 461 531 38,000  Level FlightAware ADS-B
20:13 40.3949 -103.1260 242° Southwest 461 531 38,000  Level FlightAware ADS-B
20:14 40.3716 -103.1830 242° Southwest 462 532 38,000  Level FlightAware ADS-B
20:14 40.3648 -103.2030 246° West 464 534 38,000  Level FlightAware ADS-B
20:14 40.3616 -103.2150 251° West 466 536 38,000  Level FlightAware ADS-B
20:14 40.3557 -103.2430 255° West 469 540 38,000  Level FlightAware ADS-B
20:14 40.3524 -103.2700 261° West 473 544 38,000  Level FlightAware ADS-B
20:15 40.3481 -103.3580 266° West 474 545 38,000  Level FlightAware ADS-B
20:15 40.3452 -103.4440 267° West 475 547 38,000  Level FlightAware ADS-B
20:16 40.3428 -103.5330 268° West 478 550 38,000  Level FlightAware ADS-B
20:16 40.3406 -103.6220 268° West 479 551 38,000  Level FlightAware ADS-B
20:17 40.3391 -103.7020 269° West 477 549 38,000  Level FlightAware ADS-B
20:17 40.3419 -103.7890 272° West 479 551 38,000  Level FlightAware ADS-B
20:18 40.3453 -103.8760 273° West 477 549 38,000  Level FlightAware ADS-B
20:18 40.3473 -103.8980 277° West 478 550 38,000  Level FlightAware ADS-B
20:18 40.3586 -103.9680 282° West 482 555 38,000  Level FlightAware ADS-B
20:19 40.3804 -104.0540 288° West 483 556 38,000  Level FlightAware ADS-B
20:19 40.4057 -104.1450 290° West 480 552 38,000  Level FlightAware ADS-B
20:20 40.4283 -104.2280 290° West 477 549 38,000  Level FlightAware ADS-B
20:20 40.4504 -104.3100 290° West 478 550 38,000  Level FlightAware ADS-B
20:21 40.4722 -104.3920 289° West 477 549 38,000  Level FlightAware ADS-B
20:21 40.4940 -104.4750 289° West 477 549 38,000  Level FlightAware ADS-B
20:22 40.5155 -104.5570 289° West 476 548 38,000  Level FlightAware ADS-B
20:22 40.5372 -104.6390 289° West 473 544 38,000  Level FlightAware ADS-B
20:23 40.5591 -104.7220 289° West 469 540 38,000  Level FlightAware ADS-B
20:23 40.5684 -104.7670 285° West 466 536 38,000  Level FlightAware ADS-B
20:24 40.5804 -104.8580 280° West 461 531 38,000  Level FlightAware ADS-B
20:24 40.5921 -104.9510 279° West 460 529 38,000  Level FlightAware ADS-B
20:25 40.6026 -105.0340 279° West 458 527 38,000  Level FlightAware ADS-B
20:25 40.6129 -105.1170 279° West 458 527 38,000  Level FlightAware ADS-B
20:26 40.6232 -105.2000 279° West 462 532 38,000  Level FlightAware ADS-B
20:26 40.6342 -105.2900 279° West 465 535 38,000  Level FlightAware ADS-B
20:27 40.6455 -105.3810 279° West 463 533 38,000  Level FlightAware ADS-B
20:28 40.6561 -105.4660 279° West 459 528 38,000  Level FlightAware ADS-B
20:28 40.6658 -105.5490 279° West 455 524 38,000  Level FlightAware ADS-B
20:29 40.6810 -105.6720 279° West 451 519 38,000  Level FlightAware
20:30 40.6950 -105.7940 279° West 450 518 38,000  Level FlightAware
20:30 40.7080 -105.9010 279° West 450 518 38,000  Level FlightAware
20:31 40.7190 -105.9950 279° West 448 516 38,000  Level FlightAware
20:32 40.7340 -106.1240 279° West 443 510 38,000  Level FlightAware
20:32 40.7480 -106.2470 279° West 441 507 38,000  Level FlightAware
20:33 40.7610 -106.3580 279° West 439 505 38,000  Level FlightAware
20:34 40.7720 -106.4560 278° West 438 504 38,000  Level FlightAware
20:34 40.7830 -106.5550 278° West 436 502 38,000  Level FlightAware
20:35 40.7930 -106.6450 278° West 436 502 38,000  Level FlightAware
20:36 40.8040 -106.7570 277° West 436 502 38,000  Level FlightAware
20:37 40.8140 -106.8470 278° West 436 502 38,000  Level FlightAware
20:37 40.8230 -106.9360 278° West 436 502 38,000  Level FlightAware
20:38 40.8330 -107.0260 278° West 436 502 38,000  Level FlightAware
20:39 40.8430 -107.1160 278° West 436 502 38,000  Level FlightAware
20:39 40.8540 -107.2280 277° West 436 502 38,000  Level FlightAware
20:40 40.8640 -107.3180 278° West 436 502 38,000  Level FlightAware
20:41 40.8740 -107.4080 278° West 436 502 38,000  Level FlightAware
20:41 40.8830 -107.4980 278° West 436 502 38,000  Level FlightAware
20:42 40.8930 -107.5880 278° West 436 502 38,000  Level FlightAware
20:43 40.9050 -107.7000 278° West 436 502 38,000  Level FlightAware
20:44 40.9140 -107.7900 278° West 436 502 38,000  Level FlightAware
20:44 40.9386 -108.0333 278° West 424 488 38,000  Level Salt Lake Center
20:44 40.9464 -108.1064 278° West 423 487 38,000  Level Denver Center
20:45 40.9606 -108.2544 277° West 424 488 38,000  Level Denver Center
20:47 40.9747 -108.4028 277° West 425 489 38,000  Level Denver Center
20:47 40.9844 -108.5042 277° West 427 491 38,000  Level Salt Lake Center
20:48 40.9981 -108.6544 277° West 428 493 38,000  Level Salt Lake Center
20:49 41.0125 -108.8056 277° West 430 495 38,000  Level Salt Lake Center
20:50 41.0281 -108.9811 277° West 429 494 38,000  Level Salt Lake Center
20:51 41.0414 -109.1308 277° West 425 489 38,000  Level Salt Lake Center
20:52 41.0547 -109.2811 277° West 425 489 38,000  Level Salt Lake Center
20:53 41.0592 -109.4564 272° West 425 489 38,000  Level Salt Lake Center
20:54 41.0489 -109.6056 265° West 425 489 38,000  Level Salt Lake Center
20:55 41.0397 -109.7561 265° West 426 490 38,000  Level Salt Lake Center
20:56 41.0281 -109.9314 265° West 427 491 38,000  Level Salt Lake Center
20:57 41.0183 -110.0814 265° West 427 491 38,000  Level Salt Lake Center
20:58 41.0083 -110.2297 265° West 424 488 38,000  Level Salt Lake Center
20:59 40.9961 -110.4028 265° West 423 487 38,000  Level Salt Lake Center
21:00 40.9850 -110.5519 264° West 425 489 38,000  Level Salt Lake Center
21:06 40.9160 -111.4770 264° West 418 481 38,000  Level FlightAware
21:07 40.9060 -111.5950 264° West 417 480 38,000  Level FlightAware
21:08 40.8980 -111.7060 265° West 416 479 38,000  Level FlightAware
21:08 40.8890 -111.8170 264° West 415 478 38,000  Level FlightAware
21:09 40.8810 -111.9060 263° West 414 476 38,000  Level FlightAware
21:10 40.8700 -112.0330 264° West 414 476 38,000  Level FlightAware
21:10 40.8620 -112.1310 264° West 414 476 38,000  Level FlightAware
21:11 40.8530 -112.2340 263° West 416 479 38,000  Level FlightAware
21:12 40.8450 -112.3300 264° West 419 482 38,000  Level FlightAware
21:12 40.8340 -112.4500 263° West 420 483 38,000  Level FlightAware
21:13 40.8240 -112.5640 263° West 421 484 38,000  Level FlightAware
21:14 40.8120 -112.6960 263° West 421 484 38,000  Level FlightAware
21:15 40.8040 -112.7830 263° West 421 484 38,000  Level FlightAware
21:15 40.7930 -112.9060 263° West 421 484 38,000  Level FlightAware
21:16 40.7840 -113.0060 263° West 421 484 38,000  Level FlightAware
21:17 40.7730 -113.1210 263° West 417 480 38,000  Level FlightAware
21:18 40.7610 -113.2520 263° West 415 478 38,000  Level FlightAware
21:18 40.7530 -113.3370 263° West 415 478 38,000  Level FlightAware
21:19 40.7450 -113.4230 263° West 415 478 38,000  Level FlightAware
21:20 40.7350 -113.5300 263° West 415 478 38,000  Level FlightAware
21:21 40.7270 -113.6150 263° West 415 478 38,000  Level FlightAware
21:21 40.7190 -113.7010 263° West 415 478 38,000  Level FlightAware
21:22 40.7110 -113.7860 263° West 415 478 38,000  Level FlightAware
21:23 40.7030 -113.8710 263° West 415 478 38,000  Level FlightAware
21:23 40.6950 -113.9570 263° West 415 478 38,000  Level FlightAware
21:24 40.6850 -114.0640 263° West 415 478 38,000  Level FlightAware
21:25 40.6770 -114.1490 263° West 415 478 38,000  Level FlightAware
21:25 40.6690 -114.2350 263° West 415 478 38,000  Level FlightAware
21:26 40.6610 -114.3200 263° West 415 478 38,000  Level FlightAware
21:27 40.6510 -114.4270 263° West 415 478 38,000  Level FlightAware
21:28 40.6175 -114.6697 263° West 395 455 38,000  Level Salt Lake Center
21:29 40.6011 -114.8231 262° West 393 452 38,000  Level Salt Lake Center
21:30 40.5856 -114.9578 261° West 391 450 38,000  Level Salt Lake Center
21:31 40.5706 -115.0925 262° West 389 448 38,000  Level Salt Lake Center
21:32 40.5500 -115.2497 260° West 391 450 38,000  Level Salt Lake Center
21:33 40.5364 -115.3831 262° West 386 444 38,000  Level Salt Lake Center
21:34 40.5211 -115.5172 262° West 388 447 38,000  Level Salt Lake Center
21:35 40.5008 -115.6772 261° West 395 455 38,000  Level Salt Lake Center
21:36 40.4856 -115.8125 262° West 394 453 38,000  Level Salt Lake Center
21:37 40.4711 -115.9447 262° West 386 444 38,000  Level Salt Lake Center
21:38 40.4525 -116.0978 261° West 380 437 38,000  Level Salt Lake Center
21:39 40.4358 -116.2292 261° West 380 437 38,000  Level Salt Lake Center
21:40 40.4203 -116.3611 261° West 382 440 38,000  Level Salt Lake Center
21:41 40.4014 -116.5128 261° West 379 436 38,000  Level Salt Lake Center
21:42 40.3853 -116.6414 261° West 374 430 38,000  Level Salt Lake Center
21:43 40.3692 -116.7669 260° West 366 421 38,000  Level Salt Lake Center
21:44 40.3522 -116.8942 260° West 368 423 38,000  Level Salt Lake Center
21:45 40.3333 -117.0500 261° West 369 425 38,000  Level Salt Lake Center
21:46 40.3172 -117.1750 260° West 365 420 38,000  Level Salt Lake Center
21:47 40.3011 -117.2992 260° West 362 417 38,000  Level Salt Lake Center
21:48 40.2808 -117.4464 260° West 365 420 38,000  Level Salt Lake Center
21:49 40.2642 -117.5736 260° West 368 423 38,000  Level Salt Lake Center
21:50 40.2464 -117.7072 260° West 368 423 38,000  Level Salt Lake Center
21:51 40.2258 -117.8475 259° West 369 425 38,000  Level Salt Lake Center
21:52 40.2097 -117.9761 261° West 373 429 38,000 -300 Level Salt Lake Center
21:53 40.1914 -118.1028 259° West 371 427 37,400 -1,440 Descending Salt Lake Center
21:54 40.1700 -118.2483 259° West 367 422 35,100 -2,280 Descending Salt Lake Center
21:55 40.1531 -118.3928 261° West 365 420 32,400 -2,340 Descending Oakland Center
21:56 40.1353 -118.5189 260° West 358 412 30,000 -2,220 Descending Oakland Center
21:57 40.0861 -118.6311 240° Southwest 374 430 28,000 -2,220 Descending Oakland Center
21:58 39.9911 -118.7431 222° Southwest 386 444 25,500 -2,340 Descending Oakland Center
21:59 39.9139 -118.8386 224° Southwest 383 441 23,400 -2,040 Descending Oakland Center
22:00 39.8386 -118.9306 223° Southwest 375 432 21,400 -1,980 Descending Oakland Center
22:01 39.7619 -119.0217 222° Southwest 375 432 19,400 -1,920 Descending Oakland Center
22:02 39.6894 -119.1111 224° Southwest 365 420 17,500 -1,800 Descending Oakland Center
22:03 39.6172 -119.1964 222° Southwest 357 411 15,800 -1,020 Descending Oakland Center
22:09 39.2950 -119.6570 222° Southwest 280 322 10,600 -780 Descending FlightAware
22:10 39.2750 -119.7230 249° West 280 322 10,600  Level FlightAware
22:11 39.2580 -119.7750 247° West 280 322 10,600  Level FlightAware